Location: Anumalkud?ru
(16.4847°N, 80.6636°E)
Time: 23:08:37
(UTC+00:00)

Spot 4 Rocket - Pass Details

Date: 11 April 2026
Orbit: 769 x 772 km, 98.8° (Epoch: 9 May)

Event Time Altitude Azimuth Distance (km) Brightness Sun altitude
Rises 13:21:35 0° 154° (SSE) 3,228 6.9 -7.8°
Reaches altitude 10° 13:23:57 10° 149° (SSE) 2,303 6.1 -8.4°
Maximum altitude 13:28:48 48° 76° (ENE) 1,000 4.3 -9.5°
Drops below altitude 10° 13:33:41 10° 2° (N) 2,308 6.6 -10.7°
Sets 13:36:03 0° 357° (N) 3,236 7.5 -11.2°
